This is the latest recevied weather packets stored in our database for station/object OH5GWF-1. If no packets are shown the sender has not sent any weather packets the latest 10 day(s).
| Time | Temp. | Humidity | Pressure | Rain* | Wind** | Luminosity | Snow |
|---|---|---|---|---|---|---|---|
| 1787430893 | 14.44° C | 84% | 997.3 hPa | 1.52 mm | - | - | - |
| 1787430831 | 14.44° C | 84% | 997.4 hPa | 1.52 mm | - | - | - |
| 1787430408 | 14.44° C | 84% | 997.6 hPa | 2.03 mm | - | - | - |
| 1787430232 | 13.89° C | 84% | 997.7 hPa | 2.03 mm | - | - | - |
| 1787429998 | 13.89° C | 84% | 997.8 hPa | 1.52 mm | - | - | - |
| 1787429565 | 13.89° C | 83% | 998 hPa | 2.03 mm | - | - | - |
| 1787429153 | 13.89° C | 83% | 998.4 hPa | 2.54 mm | - | - | - |
| 1787428914 | 14.44° C | 83% | 998.4 hPa | 2.54 mm | - | - | - |
| 1787428730 | 14.44° C | 83% | 998.5 hPa | 2.54 mm | - | - | - |
| 1787428309 | 14.44° C | 83% | 998.8 hPa | 2.03 mm | - | - | - |
| 1787428251 | 14.44° C | 83% | 998.7 hPa | 2.03 mm | - | - | - |
| 1787427888 | 14.44° C | 83% | 998.8 hPa | 1.52 mm | - | - | - |
| 1787427587 | 14.44° C | 83% | 998.9 hPa | 1.52 mm | - | - | - |
| 1787427478 | 14.44° C | 83% | 999 hPa | 1.52 mm | - | - | - |
| 1787427055 | 14.44° C | 83% | 999.3 hPa | 1.52 mm | - | - | - |
| 1787426924 | 14.44° C | 83% | 999.3 hPa | 1.02 mm | - | - | - |
| 1787426632 | 14.44° C | 83% | 999.5 hPa | 1.02 mm | - | - | - |
| 1787426272 | 14.44° C | 83% | 999.7 hPa | 1.02 mm | - | - | - |
| 1787426210 | 14.44° C | 83% | 999.8 hPa | 0.51 mm | - | - | - |
| 1787425788 | 14.44° C | 83% | 1000 hPa | 0 mm | - | - | - |
| 1787425609 | 14.44° C | 83% | 1000.1 hPa | 0 mm | - | - | - |
| 1787425378 | 14.44° C | 83% | 1000.1 hPa | 0 mm | - | - | - |
| 1787424955 | 14.44° C | 83% | 1000 hPa | 0 mm | - | - | - |
| 1787424533 | 14.44° C | 83% | 1000.2 hPa | 0 mm | - | - | - |
| 1787424292 | 14.44° C | 82% | 1000.4 hPa | 0 mm | - | - | - |
* Rain latest hour (hover to see other rain measurements)
** Current wind speed in m/s (hover to see current wind gust speed)